SCP
0 0 0 0 0 0 0 0 0 0 0 0 0 0 0 0 0 0 0 0 0 0 0 0 0 0 0 0 0 0 0 0 0 0 0 0 0 0 0 0 0 0 0
0 0 0 0 0 0 0 0 0 0 0 0 0 0 0 0 0 0 0 0 0 0 0 0 0 0 0 0 0 0 0 0 0 0 0 0 0 0 0 0 0 0 0
0 0 0 0 0 0 0 0 0 0 0 0 0 0 0 0 0 0 0 0 0 0 0 0 0 0 0 0 0 0 0 0 0 0 0 0 0 0 0 0 0 0 0
0 0 0 0 0 0 0 0 0 0 0 0 0 0 0 0 0 0 0 0 0 0 0 0 0 0 0 0 0 0 0 0 0 0 0 0 0 0 0 0 0 0 0
0 0 0 0 0 0 0 0 0 0 0 0 0 0 0 0 0 0 0 0 0 0 0 0 0 0 0 0 0 0 0 0 0 0 0 0 0 0 0 0 0 0 0
0 0 0 0 0 0 0 0 0 0 0 0 0 0 0 0 0 0 0 0 0 0 0 0 0 0 0 0 0 0 0 0 0 0 0 0 0 0 0 0 0 0 0
0 0 0 0 0 0 0 0 0 0 0 0 0 0 0 0 0 0 0 0 0 0 0 0 0 0 0 0 0 0 0 0 0 0 0 0 0 0 0 0 0 0 0
0 0 0 0 0 0 0 0 0 0 0 0 0 0 0 0 0 0 0 0 0 0 0 0 0 0 0 0 0 0 0 0 0 0 0 0 0 0 0 0 0 0 0
0 0 0 0 0 0 0 0 0 0 0 0 0 0 0 0 0 0 0 0 0 0 0 0 0 0 0 0 0 0 0 0 0 0 0 0 0 0 0 0 0 0 0
-0 -0 0 0 0 0 0 0 0 0 0 0 0 0 0 0 0 0 0 0 0 0 0 0 0 0 0 0 0 0 0 0 0 0 0 0 0 0 0 0 0 0 0
0 0 0 0 0 0 0 0 0 0 0 0 0 0 0 0 0 0 0 0 0 0 0 0 0 0 0 0 0 0 0 0 0 0 0 0 0 0 0 0 0 0 0
0 0 0 0 0 0 0 0 0 0 0 0 0 0 0 0 0 0 0 0 0 0 0 0 0 0 0 0 0 0 0 0 0 0 0 0 0 0 0 0 0 0 0
0 0 0 0 0 0 0 0 0 0 0 0 0 0 0 0 0 0 0 0 0 0 0 0 0 0 0 0 0 0 0 0 0 0 0 0 0 0 0 0 0 0 0
0 0 0 0 0 0 0 0 0 0 0 0 0 0 0 0 0 0 0 0 0 0 0 0 0 0 0 0 0 0 0 0 0 0 0 0 0 0 0 0 0 0 0
0 0 0 0 0 0 0 0 0 0 0 0 0 0 0 0 0 0 0 0 0 0 0 0 0 0 0 0 0 0 0 0 0 0 0 0 0 0 0 0 0 0 0
0 0 0 0 0 0 0 0 0 0 0 0 0 0 0 0 0 0 0 0 0 0 0 0 0 0 0 0 0 0 0 0 0 0 0 0 0 0 0 0 0 0 0
0 0 0 0 0 0 0 0 0 0 0 0 0 0 0 0 0 0 0 0 0 0 0 0 0 0 0 0 0 0 0 0 0 0 0 0 0 0 0 0 0 0 0
0 0 0 0 0 0 0 0 0 0 0 0 0 0 0 0 0 0 0 0 0 0 0 0 0 0 0 0 0 0 0 0 0 0 0 0 0 0 0 0 0 0 0
0 0 0 0 0 0 0 0 0 0 0 0 0 0 0 0 0 0 0 0 0 0 0 0 0 0 0 0 0 0 0 0 0 0 0 0 0 0 0 0 0 0 0
0 0 0 0 0 0 0 0 0 0 0 0 0 0 0 0 0 0 0 0 0 0 0 0 0 0 0 0 0 0 0 0 0 0 0 0 0 0 0 0 0 0 0
0 0 0 0 0 0 0 0 0 0 0 0 0 0 0 0 0 0 0 0 0 0 0 0 0 0 0 0 0 0 0 0 0 0 0 0 0 0 0 0 0 0 0
0 0 0 0 0 0 0 0 0 0 0 0 0 0 0 0 0 0 0 0 0 0 0 0 0 0 0 0 0 0 0 0 0 0 0 0 0 0 0 0 0 0 0
0 0 0 0 0 0 0 0 0 0 0 0 0 0 0 0 0 0 0 0 0 0 0 0 0 0 0 0 0 0 0 0 0 0 0 0 0 0 0 0 0 0 0
0 0 0 0 0 0 0 0 0 0 0 0 0 0 0 0 0 0 0 0 0 0 0 0 0 0 0 0 0 0 0 0 0 0 0 0 0 0 0 0 0 0 0
0 0 0 0 0 0 0 0 0 0 0 0 0 0 0 0 0 0 0 0 0 0 0 0 0 0 0 0 0 0 0 0 0 0 0 0 0 0 0 0 0 0 0
0 0 0 0 0 0 0 0 0 0 0 0 0 0 0 0 0 0 0 0 0 0 0 0 0 0 0 0 0 0 0 0 0 0 0 0 0 0 0 0 0 0 0
Wind_Speed
10 9 8 9 9 10 11 12 12 11 10 8 7 7 6 5 4 3 4 4 3 3 3 2 2 2 3 3 4 4 5 5 5 7 7 7 6 6 5 5 6 7 7
11 11 10 10 11 11 12 12 12 12 11 8 7 5 5 4 3 3 4 4 4 3 2 3 2 2 2 3 3 4 4 4 4 5 7 6 5 2 4 6 7 9 8
13 13 13 12 11 12 12 10 12 12 11 10 7 5 4 3 4 5 4 4 4 3 3 3 2 2 3 3 3 4 5 5 4 4 4 5 6 8 5 7 7 8 8
12 12 13 13 13 11 10 11 11 11 11 11 10 11 8 6 6 5 4 4 4 4 3 3 3 3 3 3 3 4 4 5 5 4 4 6 7 7 8 6 7 9 10
11 13 13 13 12 11 10 10 11 11 11 11 11 10 8 6 5 5 6 5 4 4 4 4 3 3 3 4 4 4 5 5 6 6 6 7 7 10 9 11 10 10 9
10 11 11 11 11 10 10 10 11 11 11 11 11 11 10 8 8 7 6 5 4 4 5 4 4 4 3 4 4 5 6 6 7 7 7 7 7 8 9 12 13 12 10
9 11 13 13 13 13 12 11 12 12 12 12 11 11 10 10 9 8 7 6 5 4 5 4 4 4 4 4 5 6 7 7 8 8 8 8 9 9 10 12 13 15 12
8 11 13 13 13 14 14 13 13 13 12 12 11 10 9 7 6 7 6 6 5 4 5 5 5 5 5 5 6 6 7 7 9 10 10 9 9 9 10 11 12 14 13
6 9 12 13 13 14 15 14 14 13 12 12 11 10 9 8 7 7 6 5 5 4 5 5 6 6 6 7 7 7 8 8 9 10 11 10 9 9 9 10 10 12 15
4 7 10 12 12 13 13 13 14 13 12 12 10 8 9 9 8 7 7 6 6 5 6 6 6 7 7 8 8 8 9 10 10 9 11 12 10 9 9 10 10 11 13
4 5 8 10 11 11 12 13 13 13 12 12 11 10 9 8 8 7 7 6 6 6 6 7 7 8 8 8 9 10 10 11 12 11 12 13 13 11 10 10 10 11 12
4 5 7 8 10 12 12 13 13 13 12 11 11 10 9 8 8 8 7 7 7 6 7 7 8 8 9 9 10 11 11 12 13 13 14 14 11 14 12 11 12 12 13
5 5 6 8 10 11 12 12 12 12 11 11 10 10 9 9 9 8 7 7 7 7 7 7 8 9 9 10 11 12 12 13 14 14 14 15 14 15 13 13 13 12 12
6 6 6 7 8 9 10 11 11 11 10 10 10 10 10 9 8 7 7 7 7 7 8 8 9 9 10 10 11 12 13 14 14 14 15 15 15 16 15 13 14 14 14
7 6 6 6 7 8 9 10 10 10 10 10 10 10 9 8 7 7 7 6 7 7 8 9 9 10 10 9 11 12 13 15 15 15 15 16 17 20 17 14 14 14 13
7 6 5 6 7 8 8 9 9 9 10 10 10 8 8 7 7 7 6 7 7 8 8 9 10 11 9 13 16 16 14 15 15 16 16 16 17 19 22 24 24 21 17
6 5 5 5 6 6 7 8 8 8 8 9 8 8 7 7 7 6 6 7 8 8 9 10 11 12 13 15 18 19 16 16 16 16 15 13 13 18 16 18 22 22 24
5 5 4 4 4 4 5 6 6 7 7 7 7 7 7 6 6 6 7 8 7 8 9 10 12 12 13 16 18 19 17 16 16 16 16 16 16 15 16 16 16 17 17
4 3 3 3 3 4 5 6 6 6 6 7 7 6 6 6 6 7 7 7 8 9 10 10 12 13 14 16 18 19 14 13 16 16 15 16 16 20 22 18 17 17 16
2 2 3 3 4 4 5 6 6 6 6 6 5 5 5 6 6 7 7 7 8 9 10 11 12 14 15 16 18 19 12 13 13 13 14 18 19 21 22 17 16 17 16
3 3 4 3 3 4 5 5 4 4 4 3 4 4 5 6 6 7 7 7 8 9 11 12 12 13 15 16 18 19 12 12 13 12 11 11 19 22 23 22 16 18 18
4 4 4 4 3 4 4 4 3 2 2 3 4 4 5 5 5 7 7 8 9 10 11 12 12 11 12 14 16 19 19 18 15 13 12 13 21 23 25 20 19 23 20
4 4 4 4 3 3 3 3 2 2 2 3 4 5 5 6 6 7 8 8 8 8 9 10 11 11 10 11 17 19 20 21 16 13 19 23 25 24 19 19 21 18 11
4 4 4 4 3 2 2 2 2 2 3 4 5 5 6 6 7 6 7 7 8 9 9 10 11 11 11 10 9 10 11 15 15 13 17 23 23 19 18 16 12 9 8
4 4 4 3 2 2 2 2 2 3 4 5 5 6 6 7 7 8 8 9 10 10 11 10 11 12 12 13 19 16 13 12 12 14 12 11 10 10 9 8 8 8 8
5 4 3 3 2 2 2 2 3 3 4 5 6 5 6 6 7 8 9 11 14 18 20 21 19 16 20 24 25 25 25 25 24 18 12 11 10 9 8 8 8 8 8
Wind_Direction
206 188 187 183 179 181 182 180 177 176 173 172 175 175 176 170 173 174 172 180 188 196 212 230 243 260 278 291 299 305 303 306 319 306 305 293 276 280 280 279 287 285 290
198 190 187 183 183 180 180 180 181 179 181 181 179 178 168 169 165 161 169 180 189 196 206 223 234 241 265 271 287 296 301 305 313 314 314 311 297 258 276 288 290 292 292
206 193 190 187 184 183 182 181 181 182 182 175 163 147 142 150 171 176 176 184 191 195 202 220 231 234 253 267 277 285 288 299 300 296 302 307 309 320 286 281 285 289 291
211 198 192 189 188 184 179 182 180 181 179 177 179 181 186 189 190 183 178 179 190 195 200 212 226 233 247 257 265 273 282 286 291 289 267 274 291 295 301 290 284 289 289
211 202 197 192 188 180 178 181 179 181 181 185 188 192 194 190 174 175 179 183 184 195 201 213 223 233 245 257 265 269 272 275 281 286 284 277 274 266 275 289 295 292 286
211 205 196 190 185 180 180 181 181 183 183 187 190 196 193 184 178 184 185 190 188 196 204 213 225 234 243 250 259 266 269 272 275 276 274 275 275 277 277 283 292 294 294
210 201 194 191 188 185 184 184 185 186 186 190 195 198 197 193 193 192 194 196 198 203 206 213 226 235 241 251 258 263 269 271 273 272 274 273 271 276 277 281 288 291 293
213 206 201 197 194 190 188 188 190 190 189 192 195 197 194 195 197 198 199 203 208 210 209 220 233 242 247 251 257 264 266 270 270 272 273 272 272 271 271 275 286 291 289
216 210 204 202 199 194 193 193 192 192 192 193 194 194 193 196 196 196 202 207 211 209 216 228 238 245 250 255 261 262 269 272 273 274 273 272 272 270 270 270 272 280 289
224 212 208 205 202 199 196 196 197 197 194 194 194 194 195 196 196 197 202 207 212 213 222 233 243 249 253 256 259 266 270 273 274 273 273 273 273 272 269 267 268 268 275
241 218 211 206 202 199 196 197 199 198 195 196 195 194 196 196 198 202 206 209 215 220 229 238 247 254 259 262 265 267 273 274 276 274 273 273 274 274 271 271 269 269 270
255 234 215 204 201 201 199 199 199 199 198 195 197 198 195 195 202 207 209 212 220 227 236 244 252 257 261 265 269 274 274 275 276 277 276 275 275 273 272 271 270 271 271
260 239 217 208 205 203 202 201 201 200 197 194 197 198 198 200 207 210 212 217 226 234 239 246 253 258 263 268 271 275 276 276 276 277 276 276 276 275 273 273 273 273 274
262 245 226 216 210 206 203 202 202 199 195 194 199 202 203 205 209 212 215 221 229 238 245 251 257 261 266 268 272 274 276 277 276 275 274 273 273 274 276 276 275 276 276
258 243 231 222 211 206 203 202 200 195 193 197 202 206 205 206 209 213 219 227 235 243 250 256 259 263 266 266 270 275 277 278 279 277 274 272 271 272 273 273 275 276 274
259 248 236 226 215 207 203 199 199 194 193 200 205 203 203 205 211 218 225 234 241 247 253 257 263 266 265 268 272 277 279 279 279 279 278 277 275 274 274 274 275 276 278
259 246 234 224 216 208 200 197 194 189 195 203 205 202 204 208 215 222 232 240 248 254 258 262 266 269 271 272 276 278 281 281 279 279 279 278 276 279 277 279 280 278 276
250 240 227 217 209 198 190 185 181 186 194 203 205 204 206 213 219 229 240 249 255 259 263 268 271 274 275 276 280 283 281 279 278 277 277 278 279 278 280 280 278 276 275
246 237 219 200 183 175 170 168 175 184 195 206 209 209 212 220 228 239 249 258 262 265 268 272 274 276 279 278 281 284 284 279 279 278 275 275 276 278 280 280 279 279 278
198 179 163 158 157 152 159 169 179 190 204 210 215 218 224 232 240 249 258 264 266 270 274 273 274 276 279 281 282 283 280 281 281 280 277 275 276 279 281 281 281 281 282
162 154 150 148 145 149 162 177 187 205 211 213 223 230 236 244 252 259 263 268 271 273 274 277 277 277 278 281 280 281 279 281 284 283 281 279 281 282 283 283 281 280 286
158 154 148 140 138 154 170 184 203 207 205 218 234 244 251 256 256 262 268 271 273 275 278 280 282 280 278 277 279 280 280 283 284 283 282 282 284 284 284 284 281 286 291
162 157 152 145 146 165 185 200 201 195 214 235 249 258 263 264 263 266 271 274 273 274 278 281 283 285 284 282 281 284 286 286 284 282 284 287 288 288 287 283 284 288 285
165 160 161 166 168 172 194 206 202 215 235 252 263 267 269 271 271 268 266 269 271 274 277 280 283 286 286 286 288 287 289 288 286 285 286 288 286 283 280 281 281 277 275
161 166 175 179 181 185 209 221 227 234 250 262 268 271 270 272 274 272 268 269 268 270 276 279 281 286 287 288 292 294 292 290 287 291 286 281 281 275 271 273 274 273 274
160 167 176 182 189 210 237 247 246 248 257 266 272 274 275 275 276 279 280 265 264 275 274 275 278 281 282 291 294 295 295 296 296 294 286 283 283 280 279 279 279 277 276